DW2342 Weather Reports


Display with metric or nautical units.
time (UTC)temp
F
wind
direction
speed
MPH
gust
MPH
rain 1hr
in
rain 24hr
in
rain mn
in
humidity
%
barometer
mb
20260902184538 62 190 6.0 15.0 0.01 0.18 0.09 92 1008.9
20260902183039 62 188 3.0 7.0 0.02 0.18 0.09 92 1008.9
20260902181542 62 203 4.0 13.0 0.02 0.18 0.09 92 1009.0
20260902180036 62 197 5.0 10.0 0.02 0.17 0.09 91 1009.0
20260902174537 62 212 5.0 12.0 0.02 0.19 0.09 91 1009.0
20260902173033 62 184 6.0 11.0 0.02 0.18 0.08 91 1009.1
20260902171538 62 195 5.0 11.0 0.02 0.18 0.08 91 1009.2
20260902170035 62 188 4.0 13.0 0.02 0.17 0.07 91 1009.2
20260902164534 62 189 6.0 17.0 0.01 0.17 0.06 91 1009.2
20260902163030 62 172 10.0 17.0 0.00 0.16 0.06 91 1009.1
20260902161535 62 209 8.0 21.0 0.01 0.16 0.06 91 1009.3
20260902160031 61 166 7.0 23.0 0.01 0.16 0.06 90 1009.6
20260902154524 61 182 9.0 18.0 0.01 0.16 0.06 90 1009.6
20260902153024 61 184 10.0 21.0 0.01 0.16 0.06 89 1009.8
20260902151523 61 191 6.0 15.0 0.00 0.15 0.05 89 1009.6
20260902150022 61 187 9.0 18.0 0.00 0.15 0.05 89 1009.8
20260902144521 61 131 9.0 21.0 0.00 0.15 0.05 88 1009.9
20260902143020 61 173 9.0 24.0 0.00 0.15 0.05 88 1009.9
20260902141517 61 175 9.0 17.0 0.00 0.15 0.05 88 1010.0
20260902140017 60 198 6.0 14.0 0.01 0.15 0.05 89 1010.3
20260902134514 60 192 4.0 11.0 0.01 0.15 0.05 89 1010.4
20260902133012 60 158 4.0 15.0 0.01 0.15 0.05 89 1010.7
20260902131511 60 189 5.0 18.0 0.01 0.15 0.05 88 1010.9
20260902130007 60 155 6.0 14.0 0.01 0.14 0.04 88 1011.2
20260902124508 60 138 8.0 14.0 0.02 0.14 0.04 88 1011.4
20260902123003 60 141 4.0 12.0 0.02 0.14 0.04 88 1011.4
20260902121504 59 180 4.0 11.0 0.02 0.14 0.04 88 1011.5
20260902120101 59 138 7.0 19.0 0.01 0.13 0.03 87 1011.7
20260902114618 59 148 9.0 20.0 0.02 0.13 0.02 87 1012.0
20260902113106 59 148 8.0 19.0 0.02 0.13 0.02 89 1012.1
20260902111600 59 203 8.0 14.0 0.02 0.13 0.02 89 1012.3
20260902110052 59 192 5.0 14.0 0.02 0.13 0.02 90 1012.6
20260902104548 59 201 6.0 15.0 0.01 0.11 0.01 90 1012.8
20260902103100 58 178 7.0 16.0 0.00 0.10 0.00 90 1013.0
20260902101542 58 167 7.0 16.0 0.00 0.10 0.00 90 1013.1
20260902093014 58 212 6.0 15.0 0.04 0.12 0.04 90 1013.6
20260902091504 58 175 7.0 16.0 0.02 0.10 0.02 90 1013.7
20260902090002 59 208 7.0 15.0 0.02 0.10 0.02 90 1013.6
20260902084505 59 199 6.0 12.0 0.02 0.09 0.02 90 1013.5
20260902083001 59 194 7.0 12.0 0.00 0.08 0.00 90 1013.6
20260902081559 60 217 4.0 13.0 0.00 0.08 0.00 90 1013.6
20260902080108 59 190 4.0 12.0 0.00 0.08 0.00 90 1013.7
20260902074601 59 180 5.0 14.0 0.00 0.08 0.00 90 1013.6
20260902073109 59 230 6.0 12.0 0.00 0.08 0.00 91 1013.8
20260902071553 59 226 7.0 15.0 0.00 0.08 0.00 91 1013.9
20260902070051 59 209 7.0 12.0 0.00 0.08 0.00 91 1013.8
20260902064548 59 199 3.0 9.0 0.00 0.08 0.00 91 1013.7
20260902063046 58 189 3.0 6.0 0.00 0.08 0.00 91 1013.7
20260902061553 58 186 2.0 5.0 0.00 0.08 0.00 91 1013.7
20260902060054 58 198 2.0 6.0 0.00 0.08 0.00 91 1013.9
20260902054542 58 192 2.0 5.0 0.00 0.08 0.00 91 1013.9
20260902053039 58 209 2.0 5.0 0.00 0.08 0.00 91 1013.9
20260902051538 58 202 2.0 5.0 0.00 0.08 0.00 91 1013.9
20260902050040 58 187 2.0 4.0 0.00 0.08 0.00 91 1014.0
20260902044536 59 220 2.0 7.0 0.00 0.08 0.00 91 1014.0
20260902043036 58 186 3.0 5.0 0.00 0.08 0.00 91 1014.0
20260902041543 58 211 2.0 7.0 0.00 0.08 0.00 91 1014.1
20260902040036 58 193 2.0 7.0 0.00 0.08 0.00 91 1014.1
20260902034532 59 202 1.0 5.0 0.00 0.08 0.00 91 1014.3
20260902033036 59 214 1.0 4.0 0.00 0.08 0.00 91 1014.3
20260902031531 59 218 2.0 4.0 0.00 0.08 0.00 91 1014.3
20260902030033 59 214 2.0 6.0 0.00 0.08 0.00 91 1014.4
20260902024537 59 218 3.0 6.0 0.00 0.08 0.00 91 1014.5
20260902023029 58 218 3.0 7.0 0.00 0.08 0.00 91 1014.5
20260902021541 58 227 4.0 6.0 0.00 0.08 0.00 90 1014.7
20260902020032 58 211 2.0 6.0 0.00 0.08 0.00 91 1014.6
20260902014534 59 193 2.0 6.0 0.00 0.08 0.00 91 1014.7
20260902013026 59 200 2.0 6.0 0.00 0.08 0.00 91 1014.7
20260902011525 59 192 3.0 6.0 0.00 0.08 0.00 91 1014.7
20260902010028 59 206 2.0 7.0 0.00 0.08 0.00 91 1014.7
20260902004523 59 200 3.0 6.0 0.00 0.08 0.00 91 1014.7
20260902003023 59 211 3.0 7.0 0.00 0.08 0.00 91 1014.8
20260902001522 59 200 3.0 8.0 0.00 0.08 0.00 91 1014.8
20260902000021 59 201 3.0 8.0 0.00 0.08 0.00 91 1014.8
20260901234519 59 198 1.0 5.0 0.00 0.08 0.00 91 1014.8
20260901233032 58 192 3.0 7.0 0.00 0.08 0.00 91 1014.9
20260901231516 58 196 2.0 7.0 0.01 0.08 0.00 91 1015.1
20260901230023 58 215 1.0 4.0 0.02 0.08 0.00 90 1015.1
20260901224513 58 216 1.0 5.0 0.02 0.08 0.08 90 1015.1
20260901223013 59 219 2.0 7.0 0.02 0.08 0.08 90 1015.4
20260901221512 59 219 4.0 10.0 0.02 0.07 0.07 90 1015.2
20260901220013 59 200 5.0 10.0 0.02 0.06 0.06 90 1015.3
20260901214526 59 216 3.0 10.0 0.02 0.06 0.06 90 1015.2
20260901213010 59 215 4.0 8.0 0.02 0.06 0.06 90 1015.2
20260901211510 59 219 3.0 7.0 0.01 0.05 0.05 90 1015.2
20260901210011 59 220 3.0 8.0 0.02 0.04 0.04 90 1015.4
20260901204512 60 215 3.0 7.0 0.02 0.04 0.04 90 1015.3
20260901203010 60 200 3.0 8.0 0.02 0.04 0.04 89 1015.3
20260901201508 60 190 2.0 9.0 0.02 0.03 0.03 89 1015.3
20260901200008 60 204 3.0 9.0 0.01 0.02 0.02 89 1015.3
20260901194509 60 208 3.0 8.0 0.00 0.02 0.02 89 1015.2
20260901193008 60 219 4.0 9.0 0.00 0.02 0.02 89 1015.2
20260901191505 60 205 3.0 7.0 0.00 0.02 0.02 89 1015.0
20260901190009 60 212 3.0 8.0 0.00 0.02 0.02 89 1015.1